Location: Aressy
(43.2833°N, 0.3167°W)
Time: 20:56:57
(UTC+00:00)

Cosmos 2315 Rocket - Pass Details

Date: 28 January 2021
Orbit: 965 x 1003 km, 82.9° (Epoch: 02 March)

Event Time Altitude Azimuth Distance (km) Brightness Sun altitude
Rises 19:38:34 0° 352° (N) 3,681 7.1 -27.4°
Reaches altitude 10° 19:41:06 10° 354° (N) 2,725 6.4 -27.9°
Enters shadow 19:46:35 69° 19° (NNE) 1,034 3.9 -28.9°
